Presure
225 211 238 305 90 98 255 286 327 171 124 141 284 118 119 115 118 108 129 115 122 107 103 132 121 105 109 109 116 124 138 132 133 135 137 143 126 121 95 150 118 139 125 111 126 110 130 133 120
220 236 315 190 385 228 221 222 89 320 232 324 341 136 124 116 137 117 115 116 108 122 134 126 138 139 128 112 124 117 119 144 132 134 144 136 138 129 140 143 132 128 120 128 112 112 137 108 109
234 102 155 351 194 149 327 254 308 203 220 338 339 287 169 129 125 129 122 114 118 111 122 128 125 140 131 134 109 114 128 125 130 128 141 142 131 132 120 135 96 123 142 110 135 112 124 128 122
209 290 287 336 349 323 315 309 301 321 335 283 148 281 255 236 120 131 133 119 106 133 110 120 135 143 136 132 133 118 130 131 129 126 96 135 144 131 118 146 107 132 143 118 111 127 157 123 105
246 143 284 144 333 311 304 296 288 275 321 323 323 115 277 255 128 143 126 134 133 130 119 124 125 108 123 136 129 120 107 97 136 141 140 140 134 114 102 106 152 95 108 114 133 113 115 100 108
116 288 304 340 318 305 290 282 284 279 312 281 284 304 257 275 245 206 119 125 116 139 116 126 126 134 120 114 142 145 123 137 140 134 138 113 114 108 128 103 126 132 118 130 107 109 117 114 111
157 296 127 322 244 134 274 202 151 248 297 224 256 305 294 258 269 157 140 243 125 127 133 130 136 127 132 149 140 125 139 128 150 152 140 127 139 126 135 116 144 114 112 121 110 111 112 113 113
290 370 325 302 116 264 266 286 278 108 313 300 214 264 247 260 248 254 248 247 219 134 106 134 130 126 123 139 136 133 144 150 161 139 141 146 133 125 107 133 123 132 114 131 121 114 120 122 106
366 165 299 275 266 264 266 267 275 195 168 278 195 249 245 232 204 254 237 146 206 139 131 134 132 135 130 127 136 133 143 143 139 142 134 131 127 119 112 122 127 111 111 133 109 117 109 114 123
373 310 284 278 274 273 226 270 167 142 113 261 284 311 239 225 134 120 141 142 185 229 130 115 144 124 120 134 140 143 154 118 144 149 120 119 150 145 142 126 108 112 118 120 115 128 126 121 134
246 274 250 288 270 252 255 279 259 227 252 258 110 208 180 234 259 228 241 235 232 150 149 126 126 138 133 138 144 126 120 128 205 162 131 134 142 143 129 118 116 123 126 118 110 142 110 117 118
276 262 273 286 260 250 247 253 254 253 251 246 241 119 114 125 220 234 239 230 240 232 110 215 238 131 134 132 135 142 127 143 142 124 149 148 144 171 131 134 122 119 121 137 122 112 111 118 126
275 269 263 256 250 255 256 257 255 239 253 230 255 119 116 235 181 250 242 250 109 135 111 228 182 172 220 124 145 125 181 131 126 145 130 132 157 143 152 191 129 133 129 116 125 129 123 128 135
260 270 259 246 242 242 263 254 258 226 242 234 234 195 214 118 197 124 187 242 252 260 161 232 129 169 147 130 117 126 132 161 146 120 148 138 142 117 188 118 111 111 112 119 122 126 129 191 137
237 275 247 245 241 239 261 239 250 251 245 239 234 219 226 208 128 125 238 148 222 235 234 140 225 119 198 217 225 146 121 149 177 133 211 123 145 131 117 117 125 120 119 127 128 127 135 172 191
285 270 243 249 239 241 229 235 238 246 243 237 243 238 233 231 132 246 181 242 209 126 144 122 208 185 220 128 135 139 133 136 217 196 207 209 145 113 126 119 145 125 130 140 133 135 172 145 203
240 262 249 249 235 228 237 239 236 238 235 229 235 230 241 246 239 225 135 125 230 211 228 126 209 126 216 182 165 131 128 128 135 162 172 139 123 115 115 138 131 131 136 166 164 139 231 218 202
250 236 245 250 238 240 231 216 214 227 240 237 226 235 226 218 205 168 212 223 165 226 220 132 140 164 123 202 148 134 152 193 170 217 122 120 149 125 119 135 133 126 152 136 203 199 194 198 202
249 210 248 240 235 230 229 197 232 229 249 222 242 218 226 227 214 176 187 221 216 131 141 230 134 167 200 204 207 213 198 133 137 112 198 200 111 122 134 128 174 131 149 190 200 211 211 214 235
219 239 242 237 236 225 222 233 239 229 231 218 248 232 224 236 219 213 210 222 228 141 163 157 183 134 208 142 196 190 208 160 145 185 114 129 131 143 194 193 198 190 203 213 214 204 236 221 205
220 251 213 243 238 229 231 232 226 227 169 228 231 234 251 224 213 161 125 134 209 211 182 184 135 145 184 202 110 204 161 197 125 125 131 190 193 190 214 203 214 209 209 212 208 226 198 219 215
203 232 229 235 234 229 224 226 226 217 226 160 222 225 223 222 226 198 215 211 204 201 191 127 204 150 188 198 135 120 124 188 124 178 220 213 226 211 207 208 217 215 227 227 205 196 215 203 216
198 209 251 208 244 230 223 227 227 227 231 140 215 213 182 223 225 144 213 129 200 123 121 125 128 189 129 131 213 156 207 134 140 207 217 216 216 233 231 224 218 216 202 199 214 213 205 208 208
207 213 266 220 217 242 235 221 219 219 222 230 226 212 218 191 213 217 222 210 215 203 178 135 149 127 150 128 205 204 212 219 225 224 222 225 221 217 203 204 225 198 205 218 204 204 205 206 203
179 211 248 256 203 226 238 235 213 214 216 215 214 222 224 215 220 220 221 218 129 177 176 220 225 234 227 227 222 225 224 217 216 221 217 203 201 192 209 205 215 220 205 201 200 208 203 196 200
199 206 210 265 246 205 232 241 224 219 214 214 218 226 222 222 217 216 217 215 217 216 216 214 215 215 215 213 223 218 215 213 219 158 196 196 203 204 219 215 210 205 201 204 201 197 197 201 202
188 195 216 223 267 204 206 235 233 218 216 214 218 219 220 221 217 212 214 216 219 214 217 220 216 216 222 215 207 206 203 221 198 198 200 202 204 213 216 222 202 195 201 203 202 202 201 204 204
189 190 209 219 254 257 215 222 236 231 224 217 215 217 216 216 217 217 217 217 216 215 214 214 212 216 214 205 199 195 200 200 202 201 197 205 214 218 216 197 199 205 202 202 199 200 203 202 211
199 191 215 207 229 272 254 239 220 208 232 226 220 216 215 212 213 217 220 224 226 216 212 213 212 209 198 196 198 205 203 201 199 201 208 211 217 205 196 201 197 202 195 197 194 197 206 210 208
195 194 209 213 223 244 268 246 234 216 206 205 227 230 220 214 220 223 221 213 210 205 204 205 203 202 201 201 205 204 204 208 210 218 205 213 210 200 196 197 195 197 196 202 195 196 204 207 211
Wind_Speed
61 69 70 57 28 43 48 46 47 70 52 61 55 58 61 52 59 47 63 58 58 45 47 65 57 47 50 50 55 61 69 69 70 69 70 70 52 48 30 65 44 57 39 44 37 49 58 55 44
62 68 69 62 27 29 45 55 28 42 51 44 47 61 58 61 74 56 53 54 46 61 65 58 66 68 62 54 62 58 59 71 64 67 72 62 61 51 52 60 50 46 45 57 48 48 60 51 51
62 50 48 30 40 44 36 38 40 39 38 36 41 62 60 69 65 69 57 52 54 47 47 56 58 69 67 68 52 56 63 58 58 57 70 68 50 44 43 55 36 43 60 46 51 49 45 55 54
65 78 59 27 23 28 31 33 33 27 23 33 51 54 71 75 62 69 70 53 48 61 47 52 67 74 72 69 71 58 64 63 58 57 29 58 67 41 45 61 45 42 60 47 49 51 80 52 53
76 43 55 29 21 24 27 27 29 34 20 28 30 34 54 71 61 65 65 68 64 62 55 62 65 46 59 73 69 54 44 40 70 77 70 63 49 44 41 42 71 39 50 50 63 57 54 51 57
32 59 42 14 17 18 19 23 24 28 17 27 38 37 55 54 71 71 57 62 48 67 58 67 65 70 60 46 77 78 60 71 75 63 65 50 38 41 44 43 49 46 50 50 53 56 58 60 61
40 57 29 8 14 25 15 23 25 21 19 42 40 32 40 52 46 63 66 62 63 63 69 69 74 65 65 73 70 58 73 62 84 84 68 49 60 51 55 49 64 53 55 54 57 60 62 64 65
60 9 4 3 30 11 12 10 13 30 15 23 42 33 41 43 49 50 53 50 56 74 36 71 63 54 55 66 64 60 75 81 85 69 66 71 63 45 46 51 48 52 58 66 61 63 66 68 63
22 20 4 14 12 11 10 13 9 24 22 12 41 38 37 48 49 44 56 59 63 50 63 64 55 62 56 55 64 66 75 73 67 70 61 52 54 51 49 47 49 59 59 68 57 65 61 66 69
9 3 12 8 8 9 9 10 23 26 28 17 12 17 32 45 45 44 54 60 51 55 62 44 67 46 51 65 73 73 74 51 68 77 51 47 78 70 62 65 55 61 64 63 64 73 72 74 80
54 22 27 3 11 10 6 13 21 22 23 22 26 28 40 38 29 50 44 49 52 57 59 47 50 68 66 66 66 54 51 54 82 86 58 59 65 79 46 60 59 65 65 65 62 88 65 72 73
34 32 11 8 10 11 13 16 24 23 23 27 30 36 33 37 50 49 42 46 44 51 32 55 54 58 57 53 57 64 49 56 57 50 71 72 68 96 61 65 64 63 67 76 67 69 70 77 81
32 27 9 8 10 8 11 15 21 27 26 29 30 37 35 37 40 38 39 39 34 28 31 53 59 68 63 49 68 51 62 50 49 60 50 53 79 70 78 74 63 64 65 64 72 76 76 77 81
45 23 8 8 8 8 12 17 22 26 28 29 28 38 39 42 31 43 38 33 34 43 52 46 52 58 55 51 42 50 51 55 53 47 65 60 61 55 78 55 56 58 63 67 71 74 77 75 83
48 15 7 11 9 7 10 10 10 19 25 27 29 35 32 31 43 42 30 45 33 35 44 56 58 47 53 60 64 64 49 70 62 57 80 57 65 56 58 59 63 64 67 71 73 76 80 80 82
20 5 12 11 9 6 6 8 12 11 18 22 23 25 26 28 42 28 38 30 39 47 46 52 56 63 62 53 54 53 50 54 75 70 72 76 70 49 62 63 80 69 72 79 77 81 88 94 89
40 12 8 1 6 3 7 14 15 18 19 23 20 23 23 24 27 31 44 42 34 41 46 47 53 52 60 60 53 51 51 55 59 61 64 61 57 50 54 72 70 71 75 78 82 80 77 82 82
39 28 14 3 4 3 14 15 17 19 15 22 21 21 25 27 28 33 33 35 41 37 43 50 48 45 47 60 54 52 71 62 61 72 50 44 67 64 60 73 72 70 78 79 83 79 82 84 87
43 33 12 12 6 4 9 17 12 14 11 19 24 24 24 23 30 33 32 34 37 44 46 52 47 49 53 62 67 78 59 56 61 41 75 76 47 64 73 72 79 75 89 81 84 82 83 87 75
47 32 21 16 11 8 7 4 7 12 12 17 23 24 24 28 29 30 31 27 32 38 43 46 46 47 54 53 57 52 70 65 62 65 48 65 68 71 75 81 85 80 90 81 81 80 76 76 78
42 27 29 17 9 10 6 8 14 16 18 14 14 16 17 26 32 29 33 40 30 32 39 37 47 50 58 59 31 66 50 66 55 58 64 71 76 75 75 91 89 91 88 82 81 75 76 75 73
36 36 25 19 17 11 10 11 14 17 17 22 15 16 20 17 31 36 36 36 36 37 43 40 40 48 47 53 49 46 54 67 58 65 71 71 65 77 79 77 76 77 74 70 73 75 73 76 72
35 37 22 24 17 16 14 14 13 12 10 23 17 19 20 21 24 38 36 34 39 35 34 39 45 48 50 54 49 52 51 62 63 68 63 65 66 64 62 64 66 68 70 73 72 72 75 74 74
38 37 19 23 21 20 17 17 14 14 11 13 18 21 22 28 28 28 32 38 37 40 45 49 54 52 51 54 47 50 54 58 59 56 56 55 56 58 58 62 62 67 69 66 71 73 74 75 77
26 38 30 20 22 18 20 18 17 17 16 17 18 19 26 26 26 27 30 32 41 42 46 40 42 39 42 42 44 46 46 51 51 49 49 52 55 58 61 63 63 60 65 70 71 72 74 78 81
31 33 33 21 21 21 20 20 19 22 21 21 20 21 25 27 28 28 30 32 34 37 39 39 39 39 39 41 40 39 40 47 47 54 51 54 58 60 62 61 59 64 67 68 71 73 77 78 81
28 29 39 33 22 25 20 22 22 23 23 24 23 23 24 25 29 30 32 33 35 37 40 39 40 42 39 40 39 41 43 48 51 53 56 58 61 63 65 59 63 65 68 69 71 74 79 80 82
26 29 38 36 25 24 25 25 22 25 27 27 27 26 26 26 27 28 29 30 32 34 36 38 39 40 39 40 40 44 48 49 52 54 60 63 64 63 61 66 67 69 70 73 77 80 80 86 87
28 27 36 35 29 28 29 30 26 16 27 30 32 31 31 31 30 31 31 33 33 33 35 37 39 42 42 42 45 47 47 50 54 58 61 63 62 63 67 67 70 73 75 78 82 87 86 86 87
21 24 33 33 30 27 29 33 34 20 23 25 31 35 35 32 33 34 31 30 29 31 35 38 42 44 43 45 48 49 50 52 55 55 62 62 63 66 68 70 73 77 79 82 86 91 92 93 95
Wind_Direction
310 287 308 309 264 256 272 261 252 263 259 261 234 246 246 248 247 249 243 247 248 251 255 249 255 266 263 264 261 260 258 260 263 264 266 267 269 267 277 276 277 280 270 265 277 268 291 293 274
302 303 320 289 249 255 266 264 259 248 253 238 228 248 241 246 237 246 246 242 251 248 244 252 248 247 255 258 258 262 263 257 261 266 264 266 268 275 274 275 273 272 279 284 265 269 290 276 277
306 269 288 291 266 267 233 247 249 257 249 231 232 232 234 239 243 244 243 237 246 251 251 251 253 249 250 250 258 261 259 264 266 268 267 267 268 269 263 274 276 269 283 273 285 269 280 279 277
300 324 319 290 238 244 243 247 252 247 230 237 244 227 230 230 236 241 239 242 245 248 249 250 249 245 245 250 254 259 261 262 267 265 271 269 269 267 263 278 273 276 283 269 271 285 281 273 281
325 292 320 271 239 246 250 254 253 248 240 227 224 255 226 226 230 238 242 241 240 245 245 248 249 245 249 246 256 260 263 268 263 261 266 270 268 263 269 277 277 283 273 271 281 276 272 284 279
281 324 318 249 248 247 256 255 254 249 245 233 224 221 228 220 227 232 236 239 237 238 239 243 245 246 248 246 249 250 262 259 262 265 266 274 267 264 266 271 271 276 266 275 276 276 273 273 275
298 325 269 261 263 270 246 261 259 249 243 233 226 218 222 225 224 230 230 230 237 240 242 244 243 247 248 244 252 259 257 264 257 258 266 263 271 268 272 264 281 266 269 267 275 276 277 275 275
332 273 307 272 263 246 250 227 243 251 233 217 232 221 220 219 223 219 222 225 226 237 253 241 243 249 254 255 260 261 256 252 251 263 268 270 267 260 268 272 262 274 268 275 267 276 272 275 286
323 280 304 290 271 260 253 242 238 245 241 205 230 219 216 222 226 218 223 231 226 240 240 241 244 248 253 259 259 257 256 257 263 266 269 263 263 267 266 265 266 271 274 278 280 274 283 283 280
321 339 308 281 258 186 232 210 245 248 234 183 186 208 215 221 233 238 231 231 227 217 241 243 245 245 248 251 252 256 253 257 267 265 267 261 263 270 270 268 274 276 272 274 277 284 283 286 288
342 328 314 168 167 206 181 195 185 199 179 164 245 209 224 217 210 224 220 223 218 238 241 240 243 245 246 249 254 259 261 259 256 257 261 265 267 265 258 269 270 273 269 276 284 283 288 287 284
337 327 313 189 184 207 191 180 182 178 181 185 195 226 239 230 230 227 212 220 220 215 243 225 212 245 249 251 253 256 253 266 266 265 267 267 266 267 261 271 264 272 273 279 277 287 287 284 285
330 333 320 206 230 218 209 174 188 195 179 195 176 230 238 217 225 220 224 215 256 249 262 219 235 241 238 250 253 255 250 257 260 266 257 262 271 270 272 271 265 272 271 281 283 284 282 285 289
340 332 306 241 235 255 202 186 184 197 187 199 196 220 226 239 232 237 235 225 214 212 232 216 248 238 245 251 259 256 257 250 253 264 269 262 266 273 275 275 283 285 286 283 285 285 286 295 292
344 333 281 233 253 257 180 220 191 184 191 200 202 219 219 231 235 240 216 233 226 212 202 242 212 256 231 225 223 257 262 263 249 264 255 270 274 269 280 283 277 284 286 284 285 288 290 292 292
340 354 318 244 279 283 214 215 201 198 201 210 205 212 220 222 236 208 228 219 219 242 237 243 218 235 221 252 253 257 259 263 241 256 258 259 273 284 273 284 282 285 286 286 289 291 288 292 292
347 340 323 264 289 295 213 190 195 200 206 214 206 212 202 204 198 209 237 244 217 220 212 247 222 249 221 236 251 262 264 266 267 264 266 269 280 287 285 280 282 285 286 287 289 289 294 290 291
344 342 328 317 271 233 215 245 248 230 220 216 223 214 218 215 213 227 218 224 237 223 219 247 247 238 259 234 255 263 261 250 259 250 284 279 275 283 287 281 285 289 285 289 287 287 290 290 291
347 339 325 313 301 233 199 231 238 238 214 238 206 222 213 213 214 230 233 220 221 244 243 220 249 242 237 237 238 239 254 265 266 284 264 267 284 286 281 286 281 287 285 288 286 287 290 291 294
344 337 327 319 304 255 248 233 205 232 228 238 215 221 219 221 212 214 225 237 241 253 247 243 236 255 238 256 242 250 248 258 268 260 285 284 282 281 278 278 278 283 282 284 286 288 293 291 292
345 337 331 309 301 306 282 203 215 216 230 222 204 206 212 218 213 231 255 253 235 226 241 251 254 256 249 245 276 254 266 259 286 287 282 271 273 276 278 273 279 278 282 285 288 289 292 291 292
339 343 329 321 305 276 275 259 230 237 224 254 230 213 208 218 220 226 224 233 234 225 220 267 235 254 242 243 282 286 286 260 283 273 264 267 273 270 272 274 281 282 285 287 289 291 289 292 293
334 337 318 321 289 284 268 253 252 239 233 240 239 244 242 223 222 247 228 263 234 271 272 278 280 240 278 276 256 271 261 279 278 260 267 268 271 279 280 283 284 285 288 289 289 289 292 295 296
334 334 306 310 315 277 265 255 259 257 240 235 235 245 246 249 236 235 237 239 239 246 247 266 261 282 276 281 264 265 265 265 266 269 271 276 278 281 283 283 283 286 287 289 290 293 295 295 297
288 332 337 297 304 302 278 251 258 256 247 243 243 243 234 244 243 247 251 253 270 257 259 260 257 257 256 257 261 263 264 267 270 273 275 278 280 282 281 283 285 288 287 289 294 294 295 297 297
327 327 325 312 291 299 283 251 239 241 245 245 253 250 241 235 243 247 252 255 256 258 259 262 263 265 266 267 267 269 271 272 277 282 277 280 280 283 280 285 288 287 292 293 294 295 296 296 297
294 312 334 325 286 288 290 270 242 247 251 252 252 253 252 248 247 251 253 251 250 256 260 262 263 263 265 267 267 271 273 275 282 283 285 286 286 283 285 288 288 293 293 295 297 298 298 299 300
290 296 329 320 317 270 285 285 264 249 249 256 258 253 253 253 253 255 256 255 255 257 262 264 266 268 267 269 274 277 278 280 282 284 286 285 282 283 290 292 295 297 299 301 302 302 301 300 300
302 294 325 312 315 266 264 269 279 274 256 255 256 261 261 263 262 259 259 261 259 259 262 264 266 268 273 276 277 277 279 281 282 283 281 282 283 290 293 297 300 301 302 304 302 300 299 300 300
298 304 321 315 313 316 268 263 270 276 267 265 262 258 266 271 269 268 268 269 268 268 268 268 268 271 275 278 279 283 284 282 280 271 284 281 287 293 298 299 301 302 302 300 298 299 301 304 307